Regional Weather Roundup
Issued by NWS

Home | Current Version | Previous Version | Text Only | Print | Product List | Glossary Off
Versions: 1 2 3 4 5 6 7 8 9 10 11 12 13 14 15 16 17 18 19 20 21 22 23 24 25 26 27 28 29 30 31 32 33 34 35 36 37 38 39 40 41 42 43 44 45 46 47 48 49 50

000
ASUS43 KLSX 230907
RWRMO

WEATHER SUMMARY FOR MISSOURI
NATIONAL WEATHER SERVICE SPRINGFIELD MO
300 AM CST THU NOV 23 2017

NOTE: "FAIR" INDICATES FEW OR NO CLOUDS BELOW 12,000 FEET WITH NO
       SIGNIFICANT WEATHER AND/OR OBSTRUCTIONS TO VISIBILITY.
       CURRENT SKY AND/OR WEATHER CONDITIONS ARE NOT AVAILABLE FOR
       CHILLICOTHE AND FARMINGTON.

MOZ001>031-035>038-043-044-053-054-231000-
...NORTHERN AND WESTERN MISSOURI...

CITY           SKY/WX    TMP DP  RH WIND       PRES   REMARKS
KANSAS CTY INT CLEAR     35  21  56 SW12      30.06F WCI  27
KANSAS C DTWN  CLEAR     38  21  50 S9        30.08F
LEE`S SUMMIT   CLEAR     35  21  56 S10       30.09F WCI  27
ST JOSEPH      CLEAR     33  21  61 S7        30.06S WCI  27
CHILLICOTHE      N/A     33  21  61 S6        30.08F WCI  28
KIRKSVILLE     CLOUDY    35  20  54 SW12      30.06F WCI  27

$$
MOZ066>068-077>081-088>096-101>105-231000-
...SOUTHWEST MISSOURI...

CITY           SKY/WX    TMP DP  RH WIND       PRES   REMARKS
SPRINGFIELD    CLOUDY    32  22  66 S3        30.15F
JOPLIN         PTCLDY    32  26  78 S7        30.17S WCI  26
BRANSON        CLOUDY    36  18  48 CALM      30.17F

$$
MOZ032>034-039>042-045>050-055>058-069>072-231000-
...CENTRAL MISSOURI...

CITY           SKY/WX    TMP DP  RH WIND       PRES   REMARKS
COLUMBIA       CLEAR     28  19  69 S7        30.14F WCI  21
JEFFERSON CITY CLEAR     30  19  63 E5        30.17F WCI  25
ROLLA          CLOUDY    30  16  56 S3        30.16F
SEDALIA        CLEAR     32  24  72 S8        30.13F WCI  25
WHITEMAN AFB   CLEAR     30  22  72 S8        30.08F WCI  22
WARRENSBURG    CLEAR     32  23  69 S6        30.12F WCI  26
OSAGE BEACH    CLEAR     27  20  75 CALM      30.17F

$$
MOZ051-052-059>065-231000-
...EAST CENTRAL MISSOURI...

CITY           SKY/WX    TMP DP  RH WIND       PRES   REMARKS
ST LOUIS INTL  PTCLDY    33  21  61 S3        30.19F
SPIRIT OF STL  PTCLDY    28  21  75 CALM      30.18F
ST CHARLES     CLOUDY    29  21  72 E3        30.19S

$$
MOZ072>076-082>087-097>100-106>115-231000-
...SOUTH CENTRAL AND SOUTHEAST MISSOURI...

CITY           SKY/WX    TMP DP  RH WIND       PRES   REMARKS
CAPE GIRARDEAU CLOUDY    27  24  89 CALM      30.22S
FARMINGTON     CLOUDY    29  23  78 CALM      30.19F
POPLAR BLUFF   CLOUDY    29  25  85 CALM      30.22F
WEST PLAINS    CLOUDY    28  17  63 CALM      30.18F

$$



USA.gov is the U.S. government's official web portal to all federal, state and local government web resources and services.